Temperature
17 18 18 18 18 18 18 18 18 18 17 17 17 17 17 17 17 18 18 18 18 18 18 18 18 18 18 18 18 18 18 18 18 18 18 18 18 18 18 18 18 18 18
17 17 18 18 17 18 18 18 17 17 17 17 17 17 17 17 17 17 17 17 17 17 18 18 18 18 18 18 18 18 18 18 18 18 18 18 18 18 18 18 18 18 18
18 17 17 17 17 17 17 17 17 17 17 17 17 17 17 17 17 17 17 17 17 17 17 18 18 18 18 18 18 18 18 18 18 18 18 18 18 18 18 18 18 18 18
17 17 17 17 17 17 17 17 17 17 17 17 17 17 17 17 17 17 17 17 17 17 17 17 17 17 18 17 17 17 17 17 17 17 18 18 18 18 18 18 18 18 18
17 17 17 17 17 17 17 17 17 17 17 17 17 17 16 16 16 16 16 16 16 16 17 17 17 17 17 17 17 17 17 17 17 17 17 17 18 18 18 18 18 18 18
17 17 17 17 17 17 17 17 17 17 17 17 16 16 16 16 16 16 16 16 16 16 16 17 17 17 17 17 17 17 17 17 17 17 17 17 17 17 18 18 18 18 18
17 17 17 17 17 17 17 17 16 16 16 16 16 16 16 16 16 16 16 16 16 16 16 16 17 17 17 17 17 17 17 17 17 17 17 17 17 17 17 18 18 18 18
17 17 17 17 17 17 16 16 16 16 16 16 16 16 16 16 16 16 16 16 16 16 16 16 16 16 17 17 17 17 17 17 17 17 17 17 17 17 17 17 18 18 18
17 17 17 17 17 17 16 16 16 16 16 16 16 16 16 16 16 16 16 16 16 16 16 16 16 16 16 17 17 17 17 17 17 17 17 17 17 17 17 17 17 18 18
17 17 17 17 17 16 16 16 16 16 16 16 16 16 16 16 16 16 16 16 16 16 16 16 16 16 16 16 16 16 17 17 17 17 17 17 17 17 17 17 17 17 17
17 17 17 17 17 16 16 16 16 16 16 16 16 16 16 16 16 16 16 16 16 16 16 16 16 16 16 16 16 16 17 17 17 17 17 17 17 17 17 17 17 17 17
17 17 17 17 17 17 16 16 16 16 16 16 16 16 16 16 16 16 15 15 16 16 16 16 16 16 16 16 16 16 16 16 16 16 16 17 17 17 17 17 17 17 17
17 17 17 17 17 17 17 16 16 16 16 16 16 16 16 16 16 16 16 15 16 16 16 16 16 16 16 16 16 16 16 16 16 16 16 16 17 17 17 17 17 17 17
17 17 17 17 17 17 17 17 16 16 16 16 16 16 16 16 16 16 16 16 16 16 16 16 16 16 16 16 16 16 16 16 16 16 16 16 16 16 16 16 16 16 17
18 18 17 17 17 17 17 17 16 16 16 16 16 16 16 16 16 16 16 16 16 16 16 16 16 16 16 16 16 16 16 16 16 16 16 16 16 16 16 16 16 16 16
18 18 17 17 17 17 17 17 16 16 16 16 16 16 16 16 16 16 16 16 16 16 16 16 16 16 16 16 16 16 16 16 16 16 16 16 16 16 16 16 16 16 16
18 18 18 17 17 17 17 17 16 16 16 16 16 16 16 16 16 16 16 16 16 16 16 16 16 16 16 16 16 16 16 15 15 15 15 15 15 15 15 16 16 16 16
18 18 17 17 17 17 17 16 16 16 16 16 16 16 16 16 16 16 16 16 16 16 16 16 16 16 16 16 16 15 15 15 15 15 15 15 15 15 15 15 15 15 16
18 18 17 17 17 17 17 16 16 16 16 16 16 16 16 16 16 16 16 16 16 16 16 16 16 16 16 16 16 15 15 15 15 15 15 15 15 15 15 15 15 15 15
18 18 18 17 17 17 17 16 16 16 16 16 16 16 16 16 16 16 16 16 16 16 16 16 16 16 16 16 15 15 15 15 15 15 15 15 14 14 14 14 15 15 15
18 18 18 17 17 17 17 16 16 16 16 16 16 16 16 16 16 16 16 16 16 16 16 16 16 16 15 15 15 15 15 14 14 14 14 14 14 14 14 14 15 15 15
18 18 18 17 17 17 17 16 16 16 16 16 16 16 16 16 16 16 16 16 16 16 16 16 16 16 15 15 15 15 15 14 14 14 14 14 14 14 14 14 14 15 15
18 18 18 17 17 17 17 16 16 16 16 16 16 16 16 16 16 16 16 16 16 16 16 16 16 16 16 16 16 16 15 15 14 14 14 14 14 14 14 14 14 14 14
18 18 18 17 17 17 17 16 16 16 16 16 16 16 16 16 16 16 16 16 16 16 16 16 16 16 16 16 16 16 16 15 15 14 14 14 14 14 14 14 14 14 14
18 18 18 17 17 17 17 16 16 16 16 16 16 15 16 16 16 16 16 16 16 16 15 16 16 16 16 16 16 16 16 15 15 15 14 14 14 13 13 14 14 14 14
18 18 18 18 17 17 17 17 16 16 16 16 16 16 16 16 16 15 16 16 16 16 15 15 16 16 16 16 16 16 16 16 15 15 14 14 13 13 13 13 14 14 14
Wind_Speed
1 3 8 10 11 11 12 12 12 12 13 13 13 14 14 14 14 14 13 13 13 12 12 12 11 11 11 11 10 10 10 9 9 9 10 10 10 10 9 9 8 7 8
4 5 10 11 12 12 12 12 12 12 13 13 13 13 13 12 12 12 12 12 12 11 11 11 11 10 10 10 10 9 9 8 8 9 9 9 9 9 9 9 8 7 8
5 7 10 12 12 12 12 12 12 12 12 12 12 13 12 12 11 11 11 11 11 11 10 10 9 9 9 8 8 8 8 8 7 8 8 7 7 8 9 9 8 8 8
7 8 10 11 12 13 12 12 12 12 12 12 12 12 11 11 10 10 10 10 10 9 9 9 8 8 7 7 8 7 7 7 7 7 6 5 6 7 8 8 8 8 7
8 8 10 12 13 13 12 12 12 12 11 11 11 10 10 9 9 9 9 9 9 8 8 8 7 7 6 6 6 6 7 7 7 7 7 6 5 7 8 8 8 7 7
7 9 11 13 13 12 12 12 12 11 11 10 10 10 9 8 8 8 8 8 8 8 7 7 6 6 5 5 5 6 6 7 8 7 6 5 5 7 8 8 7 7 6
6 8 11 13 13 12 11 11 11 11 10 9 9 9 8 8 8 7 7 7 7 7 7 6 5 5 4 4 4 5 7 8 7 6 6 5 6 7 8 8 7 7 6
7 7 10 12 12 12 11 10 10 10 9 9 8 8 8 8 7 7 6 7 7 6 6 5 4 3 3 4 4 5 6 7 7 7 6 5 6 7 8 8 7 7 7
8 7 7 9 10 11 10 9 9 8 8 8 7 7 7 6 6 6 6 6 6 6 6 5 3 3 3 4 4 6 7 8 7 6 6 5 7 8 8 8 7 8 7
5 5 6 7 7 7 7 7 7 6 6 5 5 5 5 5 5 5 5 5 5 5 4 3 3 3 3 3 4 6 8 8 7 6 5 6 8 8 8 8 8 8 8
6 5 5 5 6 6 6 5 5 4 4 3 3 4 4 3 3 3 4 4 4 4 3 2 2 2 3 4 4 6 7 7 7 5 5 7 8 8 8 8 8 8 8
6 5 5 5 6 6 5 4 3 2 2 2 2 3 3 3 2 2 3 3 3 3 2 1 1 2 3 3 4 5 6 7 6 5 6 8 8 8 8 8 8 8 8
7 6 6 5 5 5 3 3 2 1 1 1 1 3 4 3 3 2 1 1 2 2 2 3 3 2 2 2 3 5 6 6 5 5 7 9 9 9 9 8 8 9 9
6 5 5 5 4 4 4 3 2 2 2 2 2 4 5 3 2 2 1 1 1 2 3 3 3 3 3 4 5 6 6 6 6 6 7 9 9 9 9 9 9 9 10
7 6 5 5 5 4 4 2 3 2 2 3 3 4 6 4 2 2 1 2 2 3 3 3 4 5 5 6 7 7 6 7 7 7 7 10 10 10 10 10 10 10 10
6 6 5 5 5 5 3 3 3 3 4 4 4 4 5 5 4 2 2 2 3 4 4 5 5 5 5 5 5 6 7 7 7 7 8 9 10 11 10 10 10 10 10
5 5 6 6 5 6 5 4 4 5 6 5 5 6 6 6 6 5 3 2 3 6 7 7 6 6 5 6 6 6 6 6 7 6 7 7 8 10 11 12 12 12 12
6 6 6 7 7 6 5 5 5 6 7 6 7 8 7 7 7 6 3 3 5 7 6 4 4 5 5 5 5 5 5 5 6 6 6 6 7 8 11 13 14 14 13
8 7 6 6 7 6 5 6 6 6 6 6 8 8 7 8 8 7 4 4 6 6 4 4 4 4 5 5 5 6 5 4 4 6 5 6 7 8 9 12 14 14 14
8 8 7 6 6 6 5 5 4 5 4 6 6 7 8 7 8 7 5 6 6 4 4 4 5 4 4 4 7 7 5 5 5 5 4 5 6 7 8 9 10 11 14
7 8 6 6 5 5 4 4 4 3 2 3 4 7 7 7 8 7 5 5 5 4 4 5 4 5 4 4 5 5 5 6 6 5 4 5 6 8 8 9 9 10 11
8 8 7 6 5 5 4 3 3 3 2 2 3 6 7 8 8 6 5 4 4 4 5 4 4 3 2 2 4 3 3 5 5 6 5 5 6 8 8 9 10 11 11
9 9 8 7 6 5 5 5 4 4 4 3 4 3 5 7 7 7 6 5 4 4 4 3 4 5 3 2 2 4 4 2 1 4 5 5 5 5 6 8 9 10 11
9 8 8 7 7 7 7 7 6 4 3 1 1 1 3 6 7 8 7 7 5 4 4 3 3 3 4 2 1 2 2 4 4 1 3 4 5 6 5 6 7 9 11
9 9 8 8 7 6 7 8 7 4 3 1 2 3 3 4 6 7 7 7 5 4 4 4 4 4 3 3 2 2 3 3 3 4 2 2 4 4 4 4 5 7 10
8 8 8 8 6 6 7 7 7 7 5 4 3 2 2 2 3 5 6 6 5 4 4 4 4 5 4 4 3 3 3 3 2 3 3 2 2 2 4 4 5 6 8
Wind_Direction
44 102 110 111 107 106 104 100 99 100 100 99 100 101 101 99 99 98 97 97 95 93 93 94 93 92 94 93 93 93 92 91 91 91 91 90 86 84 83 85 80 78 84
139 113 109 109 105 105 104 102 100 99 99 99 100 103 102 102 100 99 98 99 98 96 94 94 94 94 92 91 93 92 89 86 85 87 86 84 84 84 84 83 80 81 83
113 107 104 104 103 102 101 101 100 100 99 98 98 101 102 104 102 102 101 100 100 100 97 95 94 94 92 90 89 88 84 77 80 86 86 78 81 82 83 81 78 76 78
117 110 108 105 102 100 100 100 100 100 100 100 100 101 101 103 105 106 107 107 105 105 103 102 97 93 89 85 85 83 76 70 79 90 85 75 80 84 83 80 75 73 73
110 112 114 110 105 103 101 100 100 100 101 101 102 103 102 103 105 106 107 111 110 111 111 108 105 99 91 84 83 79 70 71 84 87 84 79 84 91 87 80 74 72 69
113 115 116 113 110 107 104 103 102 102 102 104 105 105 105 105 106 106 111 115 118 119 118 114 111 107 96 86 85 76 69 72 85 89 85 89 92 94 89 81 74 69 62
126 126 122 118 116 114 113 110 108 108 107 107 107 107 110 112 109 109 114 117 119 120 121 121 119 111 95 87 86 80 71 78 93 98 88 88 94 92 86 79 71 64 59
139 137 130 125 124 125 122 119 115 111 109 109 111 112 112 112 113 117 118 121 121 123 125 123 122 116 92 79 75 73 73 81 89 106 95 91 93 89 83 76 68 61 56
141 140 138 136 133 132 129 125 123 120 116 114 113 116 118 117 117 120 123 123 126 127 127 123 117 115 97 83 71 64 74 83 93 102 101 94 95 88 79 71 66 62 56
144 149 152 150 145 142 143 142 139 136 130 126 125 121 119 121 123 128 131 134 136 132 131 125 121 111 90 81 76 70 81 84 85 94 97 95 91 85 77 70 64 62 57
153 164 167 169 174 173 170 163 150 147 146 140 134 139 128 121 116 132 144 146 147 143 136 121 119 91 74 76 74 77 83 89 86 86 93 97 90 82 75 69 64 62 57
164 179 185 183 188 191 186 157 159 162 162 162 156 156 153 149 165 153 157 153 141 132 111 71 68 51 56 57 68 82 95 95 85 81 89 93 85 79 73 68 63 58 54
168 171 178 182 184 182 174 160 157 132 139 169 169 165 151 142 151 151 122 81 67 60 27 14 19 27 44 63 84 100 108 99 89 82 83 84 80 76 71 67 63 57 54
143 149 157 165 154 158 153 146 138 135 131 133 143 140 135 131 130 137 139 110 60 41 39 34 35 53 67 84 105 109 108 103 98 89 82 79 74 70 66 67 66 62 55
126 131 141 134 128 129 119 113 107 115 114 112 103 111 131 134 141 151 135 111 93 80 71 70 71 75 82 85 102 110 107 106 101 90 80 76 71 65 63 65 64 61 54
124 121 116 114 115 113 105 97 92 92 80 70 70 86 119 131 132 126 112 100 87 93 99 94 86 86 86 88 87 98 103 107 104 95 84 74 68 62 57 59 57 54 52
133 120 117 117 106 103 98 96 89 83 77 62 64 77 94 115 120 114 102 85 87 98 97 90 84 77 78 80 77 88 95 98 106 98 86 75 66 59 59 55 52 50 48
137 125 124 118 109 103 96 92 86 84 79 69 70 72 79 91 100 100 94 85 101 102 99 91 84 80 75 77 76 75 78 83 88 93 86 76 67 61 59 56 50 46 44
142 132 123 121 116 106 96 92 85 78 71 67 65 64 68 77 91 99 96 95 98 91 88 99 86 95 91 84 80 67 60 63 65 79 77 75 72 68 62 54 49 44 41
142 137 131 125 117 106 92 84 68 58 52 57 54 55 62 70 83 93 96 98 99 89 82 87 90 80 88 89 84 67 48 48 53 53 58 67 70 68 61 56 46 40 40
142 139 140 134 130 118 108 102 93 77 50 41 44 57 65 70 81 90 94 92 95 97 101 102 93 82 73 90 84 57 33 37 45 39 45 59 61 62 65 58 49 43 37
152 152 147 143 144 140 135 133 131 123 89 61 39 50 59 68 78 94 99 101 97 94 88 91 100 99 81 89 112 97 52 21 19 24 30 54 52 56 60 58 52 46 41
158 163 160 154 147 140 131 111 89 67 47 39 35 30 35 61 75 88 99 102 99 102 105 105 116 120 118 44 89 134 136 157 36 7 22 36 43 49 50 56 52 46 44
165 162 155 152 143 139 133 125 127 125 127 155 109 56 38 56 71 86 93 96 96 98 103 105 110 115 122 112 37 62 122 141 135 91 6 14 38 46 43 54 51 47 48
159 157 155 148 141 137 136 137 133 132 144 133 87 77 52 40 63 82 92 96 94 94 101 96 96 98 108 124 119 101 82 72 91 124 112 15 25 22 31 43 52 50 48
154 152 149 146 144 141 137 137 140 146 144 131 120 107 65 36 39 63 86 90 95 97 101 103 100 99 96 95 91 94 117 120 127 119 125 112 66 8 14 25 39 46 49
Height
1535 1535 1534 1534 1533 1533 1534 1534 1534 1534 1534 1534 1535 1536 1536 1537 1538 1538 1539 1539 1540 1541 1541 1542 1542 1542 1543 1543 1543 1544 1544 1544 1544 1545 1544 1544 1544 1544 1543 1543 1543 1543 1542
1535 1535 1535 1534 1534 1534 1534 1534 1534 1534 1534 1535 1535 1536 1537 1537 1538 1539 1539 1540 1540 1541 1542 1542 1543 1543 1544 1544 1544 1545 1545 1545 1545 1545 1545 1545 1545 1544 1544 1544 1543 1543 1543
1536 1536 1535 1535 1535 1535 1534 1534 1534 1534 1535 1535 1535 1536 1537 1537 1538 1539 1539 1540 1540 1541 1542 1543 1543 1544 1544 1545 1545 1546 1546 1546 1546 1546 1546 1546 1545 1545 1545 1544 1544 1544 1543
1536 1536 1536 1536 1536 1535 1535 1535 1535 1535 1535 1535 1536 1536 1537 1537 1538 1538 1539 1540 1541 1541 1542 1543 1543 1544 1545 1545 1546 1546 1547 1547 1547 1547 1547 1546 1546 1546 1546 1545 1545 1544 1544
1537 1537 1537 1537 1536 1536 1536 1536 1536 1536 1536 1536 1536 1536 1537 1538 1538 1539 1539 1540 1540 1541 1542 1543 1544 1545 1545 1546 1547 1547 1547 1547 1548 1548 1548 1547 1547 1547 1546 1546 1545 1545 1544
1539 1538 1538 1537 1537 1537 1537 1537 1537 1536 1536 1536 1537 1537 1537 1538 1538 1539 1539 1540 1540 1542 1542 1543 1544 1545 1546 1547 1547 1548 1548 1548 1548 1548 1548 1548 1548 1547 1547 1546 1546 1545 1545
1540 1539 1539 1539 1538 1538 1538 1538 1538 1538 1538 1538 1538 1538 1538 1538 1539 1539 1539 1540 1541 1542 1543 1544 1545 1546 1546 1547 1548 1549 1549 1549 1549 1549 1549 1549 1549 1548 1548 1547 1546 1546 1545
1541 1541 1541 1540 1540 1540 1540 1540 1540 1539 1539 1539 1539 1539 1539 1539 1540 1540 1540 1541 1541 1542 1543 1544 1545 1546 1547 1548 1548 1549 1549 1550 1550 1550 1550 1550 1549 1549 1548 1548 1547 1546 1545
1543 1542 1542 1542 1542 1542 1542 1542 1542 1541 1541 1541 1541 1541 1541 1541 1541 1541 1541 1541 1542 1543 1543 1544 1545 1546 1547 1548 1549 1550 1550 1551 1551 1551 1551 1551 1550 1550 1549 1548 1547 1547 1546
1544 1544 1544 1544 1544 1544 1544 1544 1544 1544 1543 1543 1543 1543 1542 1542 1542 1542 1542 1542 1543 1543 1544 1545 1545 1547 1548 1549 1550 1550 1551 1551 1552 1552 1552 1551 1551 1550 1550 1549 1548 1547 1546
1546 1546 1546 1546 1546 1546 1546 1546 1546 1545 1545 1545 1545 1544 1544 1544 1544 1544 1544 1544 1544 1544 1545 1545 1546 1547 1548 1549 1550 1551 1552 1552 1553 1553 1552 1552 1552 1551 1550 1549 1548 1548 1547
1546 1547 1547 1547 1548 1548 1548 1548 1547 1547 1547 1547 1546 1546 1546 1546 1545 1545 1545 1545 1545 1545 1546 1547 1547 1548 1549 1550 1551 1552 1553 1553 1553 1553 1553 1553 1552 1551 1551 1550 1549 1548 1547
1547 1548 1548 1548 1549 1549 1549 1549 1549 1548 1548 1548 1548 1548 1547 1547 1547 1547 1547 1547 1547 1547 1547 1548 1548 1549 1550 1551 1552 1553 1553 1554 1554 1554 1554 1554 1553 1552 1551 1551 1550 1549 1548
1548 1548 1549 1549 1550 1550 1550 1550 1550 1550 1550 1549 1549 1549 1549 1549 1549 1549 1549 1549 1549 1549 1549 1549 1550 1550 1551 1552 1553 1554 1554 1555 1555 1555 1555 1554 1554 1553 1552 1551 1550 1550 1549
1548 1549 1549 1550 1551 1551 1551 1551 1551 1551 1551 1550 1550 1550 1550 1550 1550 1550 1550 1551 1551 1551 1551 1551 1552 1552 1553 1553 1554 1555 1556 1556 1556 1556 1556 1555 1554 1553 1553 1552 1551 1550 1549
1549 1549 1550 1551 1551 1552 1552 1552 1552 1552 1552 1551 1551 1551 1551 1552 1552 1552 1552 1552 1552 1553 1553 1553 1554 1554 1555 1555 1556 1557 1557 1558 1558 1557 1557 1556 1555 1554 1553 1553 1552 1551 1550
1549 1550 1551 1551 1552 1553 1553 1553 1553 1553 1553 1553 1552 1552 1553 1553 1553 1553 1553 1554 1554 1554 1555 1555 1555 1556 1556 1557 1558 1558 1559 1559 1559 1559 1558 1557 1556 1555 1554 1553 1552 1551 1550
1550 1551 1551 1552 1553 1553 1554 1554 1554 1554 1554 1554 1554 1554 1554 1554 1554 1554 1555 1555 1555 1556 1557 1557 1557 1558 1558 1559 1559 1560 1560 1560 1560 1560 1559 1558 1557 1556 1555 1554 1553 1552 1551
1550 1551 1552 1553 1554 1554 1554 1555 1555 1555 1555 1555 1555 1555 1555 1555 1555 1556 1556 1556 1557 1557 1558 1558 1559 1560 1560 1561 1561 1561 1562 1562 1562 1562 1561 1560 1559 1558 1557 1556 1554 1553 1552
1551 1552 1553 1554 1554 1555 1555 1555 1556 1556 1556 1556 1556 1556 1556 1556 1557 1557 1557 1557 1558 1559 1559 1560 1560 1561 1561 1562 1562 1563 1564 1564 1564 1563 1562 1561 1560 1559 1558 1557 1556 1554 1553
1550 1552 1553 1554 1555 1555 1555 1556 1556 1556 1557 1557 1557 1557 1557 1557 1558 1558 1558 1558 1559 1560 1560 1561 1561 1562 1563 1563 1564 1564 1565 1565 1565 1565 1564 1563 1562 1561 1560 1558 1557 1556 1554
1550 1552 1553 1554 1555 1556 1556 1556 1557 1557 1558 1558 1558 1558 1558 1558 1559 1559 1559 1559 1560 1560 1561 1562 1562 1563 1564 1565 1565 1565 1566 1568 1567 1566 1566 1565 1563 1562 1561 1560 1559 1557 1555
1549 1551 1553 1554 1555 1556 1556 1557 1557 1558 1558 1559 1559 1559 1559 1559 1560 1560 1560 1560 1561 1561 1562 1563 1563 1564 1565 1565 1566 1566 1566 1566 1567 1568 1567 1566 1565 1564 1563 1562 1560 1559 1557
1548 1550 1552 1554 1555 1556 1557 1557 1557 1558 1558 1559 1559 1560 1560 1560 1560 1561 1561 1561 1562 1562 1563 1563 1564 1565 1565 1566 1566 1566 1567 1566 1567 1568 1569 1568 1567 1566 1565 1563 1562 1560 1558
1547 1549 1552 1553 1555 1556 1557 1557 1558 1558 1559 1559 1560 1561 1561 1561 1561 1562 1562 1562 1563 1563 1564 1564 1565 1565 1566 1566 1567 1566 1566 1567 1567 1567 1568 1569 1568 1568 1566 1565 1564 1562 1560
1546 1549 1551 1553 1554 1555 1556 1557 1558 1559 1559 1560 1561 1561 1561 1562 1562 1562 1563 1563 1564 1564 1564 1565 1565 1566 1566 1567 1567 1567 1567 1567 1567 1568 1568 1569 1569 1569 1568 1567 1565 1564 1562